WetterOnline ( https://www.wetteronline.at )

Wetter aktuell Hoyerswerda

Aktuelles Wetter: Hoyerswerda (116m)

6-stündlich | Neueste Meldungen
Ortszeit Temperatur Wetter
Do, 18.07. 14:00 25.6° C wolkig
Do, 18.07. 8:00 17.8° C wolkenlos
Do, 18.07. 2:00 11.2° C wolkenlos
Mi, 17.07. 20:00 22.2° C leicht bewölkt
Mi, 17.07. 14:00 21.2° C wolkig
Mi, 17.07. 8:00 14.0° C bewölkt
Mi, 17.07. 2:00 13.2° C wolkenlos
Di, 16.07. 20:00 19.0° C leicht bewölkt
Ortszeit Temperatur Wetter
Do, 18.07. 14:30 25.8° C bewölkt
Do, 18.07. 14:20 25.8° C bewölkt
Do, 18.07. 14:10 25.0° C bewölkt
Do, 18.07. 14:00 25.6° C wolkig
Do, 18.07. 13:50 25.6° C wolkig
Do, 18.07. 13:40 24.9° C wolkig
Do, 18.07. 13:30 23.7° C leicht bewölkt
Do, 18.07. 13:00 23.6° C fast wolkenlos
Do, 18.07. 12:30 23.8° C fast wolkenlos
Do, 18.07. 12:00 23.0° C leicht bewölkt
Do, 18.07. 11:30 23.9° C wolkenlos
Ortszeit Relative Feuchte Sichtweite
Do, 18.07. 14:00 34% 50 km
Do, 18.07. 8:00 67% 35 km
Do, 18.07. 2:00 95% 19 km
Mi, 17.07. 20:00 42% 70 km
Mi, 17.07. 14:00 48% 55 km
Mi, 17.07. 8:00 87% 14 km
Mi, 17.07. 2:00 91% 20 km
Di, 16.07. 20:00 56% 70 km
Ortszeit Relative Feuchte Sichtweite
Do, 18.07. 14:30 33% 45 km
Do, 18.07. 14:20 33% -
Do, 18.07. 14:10 36% -
Do, 18.07. 14:00 34% 50 km
Do, 18.07. 13:50 34% -
Do, 18.07. 13:40 36% -
Do, 18.07. 13:30 37% 55 km
Do, 18.07. 13:00 37% 65 km
Do, 18.07. 12:30 37% 40 km
Do, 18.07. 12:00 40% 50 km
Do, 18.07. 11:30 38% 29 km
Ortszeit Niederschlagsmenge Niederschlagsart
Do, 18.07. 14:00 0.0 l/m2 in 6 Std. -
Do, 18.07. 8:00 0.0 l/m2 in 12 Std. -
Do, 18.07. 2:00 0.0 l/m2 in 6 Std. -
Mi, 17.07. 20:00 0.0 l/m2 in 12 Std. -
Mi, 17.07. 14:00 0.0 l/m2 in 6 Std. -
Mi, 17.07. 8:00 0.0 l/m2 in 12 Std. -
Mi, 17.07. 2:00 0.0 l/m2 in 6 Std. -
Di, 16.07. 20:00 0.1 l/m2 in 12 Std. -
Ortszeit Niederschlagsmenge Niederschlagsart
Do, 18.07. 14:30 0.0 l/m2 in 1 Std. -
Do, 18.07. 14:20 keine Meldung -
Do, 18.07. 14:10 keine Meldung -
Do, 18.07. 14:00 0.0 l/m2 in 1 Std. -
Do, 18.07. 13:50 keine Meldung -
Do, 18.07. 13:40 keine Meldung -
Do, 18.07. 13:30 0.0 l/m2 in 1 Std. -
Do, 18.07. 13:00 0.0 l/m2 in 1 Std. -
Do, 18.07. 12:30 0.0 l/m2 in 1 Std. -
Do, 18.07. 12:00 0.0 l/m2 in 1 Std. -
Do, 18.07. 11:30 0.0 l/m2 in 1 Std. -
Ortszeit Stärke Spitze Richtung
km/h Bft. km/h Grad Sektor
Do, 18.07. 14:00 4 1 22 70° O
Do, 18.07. 8:00 0 0 7 - -
Do, 18.07. 2:00 2 1 9 170° S
Mi, 17.07. 20:00 6 1 39 340° N
Mi, 17.07. 14:00 7 2 25 320° NW
Mi, 17.07. 8:00 15 3 24 290° W
Mi, 17.07. 2:00 9 2 33 270° W
Di, 16.07. 20:00 18 3 40 280° W
Ortszeit Stärke Spitze Richtung
km/h Bft. km/h Grad Sektor
Do, 18.07. 14:30 11 2 18 270° W
Do, 18.07. 14:20 11 2 - 270° W
Do, 18.07. 14:10 9 2 - 240° SW
Do, 18.07. 14:00 4 1 22 70° O
Do, 18.07. 13:50 4 1 - 70° O
Do, 18.07. 13:40 4 1 - 100° O
Do, 18.07. 13:30 6 1 20 90° O
Do, 18.07. 13:00 4 1 14 50° NO
Do, 18.07. 12:30 6 1 15 220° SW
Do, 18.07. 12:00 11 2 20 80° O
Do, 18.07. 11:30 7 2 11 200° S
Ortszeit Untergrenze Bedeckung Gattung
total tief tief mittel hoch
Do, 18.07. 14:00 2100 m 6/8 6/8 - - -
Do, 18.07. 8:00 - 0/8 0/8 - - -
Do, 18.07. 2:00 8400 m 0/8 0/8 - - -
Mi, 17.07. 20:00 7200 m 7/8 0/8 - - -
Mi, 17.07. 14:00 1440 m 6/8 3/8 - - -
Mi, 17.07. 8:00 270 m 7/8 7/8 - - -
Mi, 17.07. 2:00 - 0/8 0/8 - - -
Di, 16.07. 20:00 1320 m 4/8 4/8 - - -
Ortszeit Bedeckungsgrad in Achtel und Wolkenuntergrenze
Do, 18.07. 14:30 7(2100m)
Do, 18.07. 14:20 7(2100m)
Do, 18.07. 14:10 7(2100m)
Do, 18.07. 14:00 6(2100m)
Do, 18.07. 13:50 6(2100m)
Do, 18.07. 13:40 5(1800m)
Do, 18.07. 13:30 2(1800m)
Do, 18.07. 13:00 1(1800m)
Do, 18.07. 12:30 1(1800m)
Do, 18.07. 12:00 2(1800m)
Do, 18.07. 11:30 keine Wolken
Ortszeit Luftdruck NN (hPa) Tendenz (hPa in 3 Std.)
Do, 18.07. 14:00 1012 - 0,8
Do, 18.07. 8:00 1013 0,0
Do, 18.07. 2:00 1014 + 0,2
Mi, 17.07. 20:00 1013 - 0,7
Mi, 17.07. 14:00 1014 - 0,6
Mi, 17.07. 8:00 1015 + 0,1
Mi, 17.07. 2:00 1015 + 0,4
Di, 16.07. 20:00 1014 - 0,4
Ortszeit Luftdruck NN (hPa) Tendenz (hPa in 3 Std.)
Do, 18.07. 14:30 1012 - 0,8
Do, 18.07. 14:20 1012 keine Meldung
Do, 18.07. 14:10 1012 keine Meldung
Do, 18.07. 14:00 1012 - 0,8
Do, 18.07. 13:50 1012 keine Meldung
Do, 18.07. 13:40 1012 keine Meldung
Do, 18.07. 13:30 1012 - 0,7
Do, 18.07. 13:00 1012 - 0,6
Do, 18.07. 12:30 1012 - 0,5
Do, 18.07. 12:00 1013 - 0,4
Do, 18.07. 11:30 1013 - 0,2
Ortszeit Schneehöhe (cm)
Do, 18.07. 14:00 -
Do, 18.07. 8:00 -
Do, 18.07. 2:00 -
Mi, 17.07. 20:00 -
Mi, 17.07. 14:00 -
Mi, 17.07. 8:00 -
Mi, 17.07. 2:00 -
Di, 16.07. 20:00 -
Ortszeit Schneehöhe (cm)
Do, 18.07. 14:30 -
Do, 18.07. 14:20 -
Do, 18.07. 14:10 -
Do, 18.07. 14:00 -
Do, 18.07. 13:50 -
Do, 18.07. 13:40 -
Do, 18.07. 13:30 -
Do, 18.07. 13:00 -
Do, 18.07. 12:30 -
Do, 18.07. 12:00 -
Do, 18.07. 11:30 -
Link zu dieser Seite / Seite empfehlen

Das Wetter in ...